• In Kazakhstan
  • List of Countries
  • For 7 days
  • Water Temperature
  • Weather Map
  • News
  • Weather Widgets
  • user-avatar
    Login

    Hourly Weather Bedford

    Today, 5 April, Sunday

    Time Temperature Precipitation Wind Pressure Humidity
    00:00 +5°C° 0 mm 4 mps 761 mmHg 83%
    01:00 +5°C° 0 mm 4 mps 760 mmHg 84%
    02:00 +5°C° 0 mm 4 mps 760 mmHg 85%
    03:00 +5°C° 0 mm 4 mps 759 mmHg 85%
    04:00 +5°C° 0 mm 4 mps 759 mmHg 87%
    05:00 +5°C° 0 mm 4 mps 759 mmHg 88%
    06:00 +4°C° 0 mm 4 mps 759 mmHg 89%
    07:00 +7°C° 0 mm 5 mps 758 mmHg 84%
    08:00 +9°C° 0 mm 5 mps 758 mmHg 79%
    09:00 +11°C° 0 mm 6 mps 758 mmHg 75%
    10:00 +12°C° 0 mm 7 mps 757 mmHg 71%
    11:00 +15°C° 0 mm 7 mps 757 mmHg 67%
    12:00 +16°C° 0 mm 7 mps 756 mmHg 63%
    13:00 +16°C° 0 mm 7 mps 756 mmHg 62%
    14:00 +17°C° 0 mm 7 mps 755 mmHg 61%
    15:00 +17°C° 0 mm 7 mps 755 mmHg 60%
    16:00 +16°C° 0 mm 7 mps 755 mmHg 65%
    17:00 +15°C° 0 mm 6 mps 754 mmHg 70%
    18:00 +13°C° 0 mm 6 mps 754 mmHg 75%
    19:00 +13°C° 0 mm 6 mps 754 mmHg 76%
    20:00 +11°C° 0 mm 6 mps 755 mmHg 77%
    21:00 +11°C° 0 mm 6 mps 755 mmHg 78%
    22:00 +11°C° 0 mm 6 mps 754 mmHg 80%
    23:00 +11°C° 0 mm 6 mps 754 mmHg 82%

    Tomorrow, 6 April, Monday

    Time Temperature Precipitation Wind Pressure Humidity
    00:00 +11°C° 0 mm 6 mps 754 mmHg 84%
    01:00 +11°C° 0 mm 6 mps 754 mmHg 84%
    02:00 +11°C° 0 mm 6 mps 755 mmHg 85%
    03:00 +11°C° 0 mm 6 mps 755 mmHg 85%
    04:00 +12°C° 0 mm 5 mps 755 mmHg 87%
    05:00 +10°C° 0 mm 5 mps 756 mmHg 90%
    06:00 +10°C° 0 mm 4 mps 756 mmHg 92%
    07:00 +11°C° 0 mm 4 mps 757 mmHg 86%
    08:00 +12°C° 0 mm 4 mps 758 mmHg 80%
    09:00 +12°C° 0 mm 4 mps 759 mmHg 75%
    10:00 +13°C° 0 mm 4 mps 759 mmHg 69%
    11:00 +14°C° 0 mm 5 mps 760 mmHg 64%
    12:00 +15°C° 0 mm 5 mps 760 mmHg 59%
    13:00 +14°C° 0.1 mm 5 mps 761 mmHg 62%
    14:00 +14°C° 0.1 mm 5 mps 762 mmHg 65%
    15:00 +14°C° 0.1 mm 4 mps 762 mmHg 67%
    16:00 +13°C° 0.1 mm 4 mps 763 mmHg 71%
    17:00 +12°C° 0.1 mm 3 mps 763 mmHg 75%
    18:00 +13°C° 0.1 mm 2 mps 764 mmHg 80%
    19:00 +10°C° 0 mm 2 mps 765 mmHg 81%
    20:00 +9°C° 0 mm 2 mps 766 mmHg 83%
    21:00 +7°C° 0 mm 2 mps 767 mmHg 84%
    22:00 +7°C° 0 mm 2 mps 767 mmHg 84%
    23:00 +6°C° 0 mm 2 mps 768 mmHg 83%

    Day after tomorrow, 7 April, Tuesday

    Time Temperature Precipitation Wind Pressure Humidity
    00:00 +7°C° 0 mm 1 mps 768 mmHg 83%
    01:00 +6°C° 0 mm 1 mps 768 mmHg 84%
    02:00 +6°C° 0 mm 1 mps 769 mmHg 85%
    03:00 +5°C° 0 mm 1 mps 769 mmHg 86%
    04:00 +5°C° 0 mm 1 mps 769 mmHg 86%
    05:00 +5°C° 0 mm 1 mps 770 mmHg 87%
    06:00 +5°C° 0 mm 1 mps 770 mmHg 88%
    07:00 +8°C° 0 mm 1 mps 770 mmHg 83%
    08:00 +9°C° 0 mm 2 mps 770 mmHg 78%
    09:00 +12°C° 0 mm 2 mps 770 mmHg 73%
    10:00 +13°C° 0 mm 2 mps 770 mmHg 68%
    11:00 +15°C° 0 mm 2 mps 770 mmHg 64%
    12:00 +16°C° 0 mm 2 mps 770 mmHg 59%
    13:00 +16°C° 0 mm 2 mps 770 mmHg 58%
    14:00 +16°C° 0 mm 2 mps 770 mmHg 57%
    15:00 +18°C° 0 mm 1 mps 769 mmHg 57%
    16:00 +16°C° 0 mm 1 mps 769 mmHg 63%
    17:00 +15°C° 0 mm 1 mps 769 mmHg 69%
    18:00 +14°C° 0 mm 1 mps 769 mmHg 75%
    19:00 +13°C° 0 mm 2 mps 769 mmHg 79%
    20:00 +10°C° 0 mm 2 mps 770 mmHg 83%
    21:00 +9°C° 0 mm 2 mps 770 mmHg 87%
    22:00 +8°C° 0 mm 2 mps 770 mmHg 88%
    23:00 +8°C° 0 mm 2 mps 770 mmHg 89%

    8 April, Wednesday

    Time Temperature Precipitation Wind Pressure Humidity
    00:00 +8°C° 0 mm 1 mps 769 mmHg 90%
    01:00 +8°C° 0 mm 1 mps 769 mmHg 90%
    02:00 +8°C° 0 mm 1 mps 769 mmHg 90%
    03:00 +7°C° 0 mm 0 mps 769 mmHg 89%
    04:00 +7°C° 0 mm 0 mps 769 mmHg 89%
    05:00 +7°C° 0 mm 0 mps 769 mmHg 89%
    06:00 +7°C° 0 mm 0 mps 769 mmHg 89%
    07:00 +9°C° 0 mm 0 mps 768 mmHg 85%
    08:00 +11°C° 0 mm 0 mps 768 mmHg 81%
    09:00 +13°C° 0 mm 1 mps 768 mmHg 77%
    10:00 +14°C° 0 mm 1 mps 768 mmHg 74%
    11:00 +15°C° 0 mm 1 mps 768 mmHg 72%
    12:00 +16°C° 0 mm 1 mps 768 mmHg 69%
    13:00 +18°C° 0 mm 1 mps 767 mmHg 68%
    14:00 +18°C° 0 mm 1 mps 767 mmHg 67%
    15:00 +18°C° 0 mm 1 mps 767 mmHg 66%
    16:00 +18°C° 0 mm 1 mps 766 mmHg 69%
    17:00 +16°C° 0 mm 1 mps 766 mmHg 73%
    18:00 +15°C° 0 mm 1 mps 766 mmHg 77%
    19:00 +13°C° 0 mm 1 mps 766 mmHg 77%
    20:00 +12°C° 0 mm 1 mps 767 mmHg 78%
    21:00 +10°C° 0 mm 1 mps 767 mmHg 79%
    22:00 +10°C° 0 mm 1 mps 767 mmHg 80%
    23:00 +9°C° 0 mm 1 mps 767 mmHg 82%

    9 April, Thursday

    Time Temperature Precipitation Wind Pressure Humidity
    00:00 +9°C° 0 mm 1 mps 767 mmHg 83%
    01:00 +9°C° 0 mm 1 mps 767 mmHg 84%
    02:00 +8°C° 0 mm 1 mps 766 mmHg 85%
    03:00 +8°C° 0 mm 1 mps 766 mmHg 86%
    04:00 +8°C° 0 mm 1 mps 766 mmHg 86%
    05:00 +8°C° 0 mm 1 mps 766 mmHg 86%
    06:00 +8°C° 0 mm 1 mps 766 mmHg 86%
    07:00 +10°C° 0 mm 1 mps 767 mmHg 82%
    08:00 +12°C° 0 mm 2 mps 767 mmHg 78%
    09:00 +14°C° 0 mm 2 mps 767 mmHg 74%
    10:00 +15°C° 0 mm 2 mps 767 mmHg 70%
    11:00 +16°C° 0 mm 2 mps 767 mmHg 65%
    12:00 +17°C° 0 mm 2 mps 767 mmHg 61%
    13:00 +18°C° 0 mm 2 mps 766 mmHg 60%
    14:00 +18°C° 0 mm 2 mps 766 mmHg 59%
    15:00 +19°C° 0 mm 1 mps 766 mmHg 58%
    16:00 +17°C° 0 mm 2 mps 766 mmHg 66%
    17:00 +16°C° 0 mm 3 mps 766 mmHg 75%
    18:00 +13°C° 0 mm 3 mps 766 mmHg 83%
    19:00 +12°C° 0 mm 3 mps 766 mmHg 87%
    20:00 +11°C° 0 mm 3 mps 766 mmHg 90%
    21:00 +9°C° 0 mm 3 mps 767 mmHg 94%
    22:00 +9°C° 0 mm 3 mps 767 mmHg 94%
    23:00 +8°C° 0 mm 3 mps 767 mmHg 94%

    10 April, Friday

    Time Temperature Precipitation Wind Pressure Humidity
    00:00 +8°C° 0 mm 3 mps 767 mmHg 93%
    01:00 +8°C° 0 mm 2 mps 766 mmHg 93%
    02:00 +7°C° 0 mm 2 mps 766 mmHg 93%
    03:00 +7°C° 0 mm 2 mps 765 mmHg 93%
    04:00 +7°C° 0 mm 2 mps 765 mmHg 93%
    05:00 +7°C° 0 mm 2 mps 765 mmHg 93%
    06:00 +7°C° 0 mm 2 mps 765 mmHg 93%
    07:00 +10°C° 0 mm 2 mps 765 mmHg 88%
    08:00 +13°C° 0 mm 2 mps 765 mmHg 83%
    09:00 +15°C° 0 mm 2 mps 765 mmHg 78%
    10:00 +16°C° 0 mm 2 mps 765 mmHg 74%
    11:00 +18°C° 0 mm 2 mps 764 mmHg 70%
    12:00 +19°C° 0 mm 3 mps 764 mmHg 67%
    13:00 +19°C° 0.4 mm 3 mps 764 mmHg 67%
    14:00 +19°C° 0.4 mm 3 mps 763 mmHg 68%
    15:00 +19°C° 0.4 mm 4 mps 763 mmHg 69%
    16:00 +18°C° 0.3 mm 4 mps 763 mmHg 74%
    17:00 +17°C° 0.3 mm 3 mps 763 mmHg 79%
    18:00 +16°C° 0.3 mm 3 mps 762 mmHg 84%
    19:00 +14°C° 0 mm 3 mps 762 mmHg 86%
    20:00 +14°C° 0 mm 2 mps 763 mmHg 89%
    21:00 +13°C° 0 mm 2 mps 763 mmHg 92%
    22:00 +13°C° 0 mm 2 mps 763 mmHg 93%
    23:00 +13°C° 0 mm 2 mps 763 mmHg 94%
    Show more